Preview of NWS' New Version of Forecast
This preview is not operational and should not be used for support decisions.
Latest weather observations around

Missoula, Missoula International Airport (KMSO)

Using English Units (Switch to International System of Units)
Date/ Time (MDT) Wind (mph) Vis. (mi) Weather Sky Cond. Temp (°F) Rel. Humidity Wind Chill (°F) Heat Index (°F) Pressure Precip. (in)
Air Dwpt 6 hour Altimeter (inHg) Sea level (inHg) 1 hr 3 hr 6 hr
Max Min
Apr 23 00:53 5 10 Clear CLR 42 22     44% 39   30.17 30.19      
Apr 22 23:53 NW 8 10 Clear CLR 40 23     50% 34   30.15 30.18      
Apr 22 22:53 NW 9 10 Clear CLR 44 22     41% 39   30.16 30.18      
Apr 22 20:53 NNW 7 10 Clear CLR 48 21     34% 45   30.13 30.16      
Apr 22 19:53   10 Clear CLR 53 21     28%     30.11 30.15      
Apr 22 18:53   10 Clear CLR 56 22     26%     30.1 30.14      
Apr 22 17:53   10 Clear CLR 58 22     25%     30.09 30.12      
Apr 22 16:53 N 9 10 Clear CLR 59 23     25%     30.09 30.12      
Apr 22 15:53 NNE 8 10 Clear CLR 58 21     24%     30.1 30.13      
Apr 22 14:53 NW 8 10 Clear CLR 57 22     25%     30.13 30.15      
Apr 22 13:53 NW 10 10 Clear CLR 56 25     30%     30.15 30.17      
Apr 22 12:53 NE 5 10 Clear CLR 52 22     31%     30.17 30.2      
Apr 22 11:53 6 10 Clear CLR 51 22     32%     30.19 30.22      
Apr 22 10:53 N 7 10 Clear CLR 49 25     39% 46   30.21 30.24      
Apr 22 09:53 Calm 10 Clear CLR 41 27     57%     30.23 30.27      
Apr 22 08:53 Calm 10 Clear CLR 37 26     64%     30.23 30.27      
Apr 22 07:53 Calm 10 Clear CLR 32 24     72%     30.24 30.28      
Apr 22 06:53 Calm 10 Clear CLR 30 21     69%     30.23 30.27      
Apr 22 05:53 NNE 3 10 Clear CLR 31 22     69% 28   30.22 30.25      
Apr 22 04:53 SSW 3 10 Clear CLR 31 22     69% 28   30.22 30.25      
Apr 22 03:53 NNW 5 10 Clear CLR 32 23     69% 27   30.21 30.24      
Apr 22 01:53 NNW 9 10 Clear CLR 39 23     52% 33   30.21 30.23      
Apr 22 00:53 N 10 10 Clear CLR 40 23     50% 33   30.2 30.23      
Apr 21 23:53 NW 5 10 Clear CLR 41 22     46% 38   30.2 30.23      
Apr 21 22:53 NW 7 10 Clear CLR 41 22     46% 36   30.2 30.23      
Apr 21 21:53 NW 8 10 Clear CLR 46 20     35% 42   30.19 30.22      
Apr 21 20:53 NNW 9 10 Clear CLR 48 21     34% 44   30.17 30.2      
Apr 21 19:53 NW 13 10 Clear CLR 53 23     31%     30.15 30.18      
Apr 21 18:53 WNW 17 10 Clear CLR 57 22     25%     30.14 30.16      
Apr 21 17:53 W 16 10 Clear CLR 59 22     24%     30.13 30.14      
Apr 21 16:53 W 20 10 Clear and Windy CLR 60 25     26%     30.13 30.14      
Apr 21 15:53   10 Partly Cloudy SCT075 57 27     31%     30.14 30.16      
Apr 21 14:53   10 Mostly Cloudy BKN075 BKN085 55 30     38%     30.15 30.17      
Apr 21 13:53   10 Cloudy OVC065 54 30     40%     30.14 30.16      
Apr 21 12:53 WNW 8 10 Cloudy OVC060 52 32     46%     30.14 30.16      
Apr 21 11:53 WNW 9 10 Cloudy OVC065 52 32     46%     30.14 30.16      
Apr 21 10:53 WNW 7 10 Cloudy OVC060 45 33     63% 41   30.15 30.17      
Apr 21 09:53 Calm 10 Cloudy FEW055 BKN070 OVC090 43 33     68%     30.14 30.17      
Apr 21 08:53 Calm 10 Cloudy OVC065 40 33     76%     30.15 30.17      
Apr 21 07:53 W 3 10 Cloudy OVC075 37 32     82% 35   30.15 30.16      
Apr 21 06:53 W 3 10 Cloudy OVC090 36 31     82% 33   30.12 30.14      
Apr 21 05:53 Calm 10 Partly Cloudy SCT090 38 29     70%     30.11 30.11      
Apr 21 04:53 ENE 3 10 Clear CLR 37 29     72% 35   30.11 30.11      
Apr 21 03:53 Calm 10 Clear CLR 36 28     73%     30.11 30.12      
Apr 21 02:53 Calm 10 Clear CLR 38 29     70%     30.12 30.13      
Apr 21 01:53 Calm 10 Clear CLR 37 29     72%     30.12 30.14      
Apr 21 00:53 3 10 Clear CLR 42 29     59% 40   30.11 30.12      
Apr 20 23:53 N 5 10 Clear CLR 44 30     58% 41   30.1 30.12      
Apr 20 22:53 Calm 10 Clear CLR 48 31     51%     30.1 30.11      
Apr 20 21:53 NNW 8 10 Clear CLR 49 30     48% 45   30.09 30.11      
Apr 20 20:53 NNW 8 10 Clear CLR 53 31     43%     30.07 30.1      
Apr 20 19:53 S 6 10 Clear CLR 60 33     36%     30.06 30.09      
Apr 20 18:53 SSW 5 10 Clear CLR 63 26     24%     30.06 30.09      
Apr 20 17:53 S 6 10 Clear CLR 64 27     24%     30.07 30.09      
Apr 20 16:53 SSW 5 10 Clear CLR 63 24     23%     30.08 30.1      
Apr 20 15:53 Calm 10 Clear CLR 64 25     23%     30.1 30.11      
Apr 20 14:53 5 10 Clear CLR 62 26     25%     30.12 30.14      
Apr 20 13:53 Calm 10 Clear CLR 59 22     24%     30.14 30.16      
Apr 20 12:53 Calm 10 Clear CLR 57 27     31%     30.16 30.18      
Apr 20 11:53 Calm 10 Clear CLR 54 30     40%     30.19 30.21      
Apr 20 10:53 Calm   Clear CLR 49 28     44%     30.2 30.23      
Apr 20 09:53 Calm   Clear CLR 44 29     55%     30.22 30.24      
Apr 20 08:53 Calm   Clear CLR 38 28     67%     30.23 30.26      
Apr 20 07:53 Calm 10 Clear CLR 34 27     75%     30.22 30.25      
Apr 20 06:53 Calm 10 Clear CLR 30 24     78%     30.2 30.23      
Apr 20 05:53 Calm 10 Clear CLR 31 25     78%     30.18 30.2      
Apr 20 04:53 Calm 10 Clear CLR 32 24     72%     30.16 30.19      
Apr 20 03:53 Calm 10 Clear CLR 33 25     72%     30.15 30.17      
Apr 20 02:53 NE 3 10 Clear CLR 34 25     69% 31   30.14 30.16      
Apr 20 01:53 Calm 10 Clear CLR 37 26     64%     30.14 30.16      
Apr 20 00:53 Calm 10 Clear CLR 39 26     59%     30.12 30.14      
Jun 11 20:53   10 Clear   64 35     34%     29.82 29.8      
Jun 11 14:53 W 5 10 Clear CLR 65 28     25%     29.89 29.9      
Jun 10 12:13 5 6 Light Rain FEW035 BKN043 OVC055 52 41     66%     29.75   0    
Jun 10 08:53 S 7 10 Clear CLR 51 41     68%     29.75 29.74      
Jun 09 13:53 7 10 Light Rain FEW026 SCT037 BKN047 57 48     72%     29.8 29.79 0    
Jun 08 21:53   10 Mostly Clear FEW120 64 51     63%     29.75 29.7      
Jun 07 23:53 E 10 10 Clear CLR 70 54     57%     29.84 29.77      
Jun 07 09:53 Calm 10 Clear CLR 66 52     61%     29.99 29.94      
Jun 06 01:53 N 5 10 Clear CLR 47 41     80% 45   30.17 30.15